Year,Month,Day,Hour,Minute,Value (Times are PST for temperature in C)
2012,09,18,00,00,17.40
2012,09,18,00,01,17.40
2012,09,18,00,02,17.50
2012,09,18,00,03,17.50
2012,09,18,00,04,17.40
2012,09,18,00,05,17.40
2012,09,18,00,06,17.30
2012,09,18,00,07,17.20
2012,09,18,00,08,17.10
2012,09,18,00,09,17.00
2012,09,18,00,10,17.00
2012,09,18,00,11,17.00
2012,09,18,00,12,17.00
2012,09,18,00,13,17.00
2012,09,18,00,14,17.10
2012,09,18,00,15,17.10
2012,09,18,00,16,17.10
2012,09,18,00,17,17.10
2012,09,18,00,18,17.00
2012,09,18,00,19,17.00
2012,09,18,00,20,16.90
2012,09,18,00,21,16.80
2012,09,18,00,22,16.80
2012,09,18,00,23,16.70
2012,09,18,00,24,16.70
2012,09,18,00,25,16.70
2012,09,18,00,26,16.80
2012,09,18,00,27,16.90
2012,09,18,00,28,17.00
2012,09,18,00,29,17.00
2012,09,18,00,30,17.00
2012,09,18,00,31,17.10
2012,09,18,00,32,17.10
2012,09,18,00,33,17.10
2012,09,18,00,34,17.10
2012,09,18,00,35,17.00
2012,09,18,00,36,17.00
2012,09,18,00,37,16.90
2012,09,18,00,38,16.80
2012,09,18,00,39,16.70
2012,09,18,00,40,16.60
2012,09,18,00,41,16.40
2012,09,18,00,42,16.30
2012,09,18,00,43,16.20
2012,09,18,00,44,16.00
2012,09,18,00,45,15.90
2012,09,18,00,46,15.80
2012,09,18,00,47,15.80
2012,09,18,00,48,15.80
2012,09,18,00,49,15.80
2012,09,18,00,50,15.80
2012,09,18,00,51,15.90
2012,09,18,00,52,16.00
2012,09,18,00,53,16.20
2012,09,18,00,54,16.40
2012,09,18,00,55,16.60
2012,09,18,00,56,16.70
2012,09,18,00,57,16.80
2012,09,18,00,58,16.80
2012,09,18,00,59,16.90
2012,09,18,01,00,16.90
2012,09,18,01,01,16.90
2012,09,18,01,02,16.90
2012,09,18,01,03,16.80
2012,09,18,01,04,16.80
2012,09,18,01,05,16.70
2012,09,18,01,06,16.60
2012,09,18,01,07,16.40
2012,09,18,01,08,16.30
2012,09,18,01,09,16.10
2012,09,18,01,10,16.10
2012,09,18,01,11,16.00
2012,09,18,01,12,16.00
2012,09,18,01,13,16.00
2012,09,18,01,14,15.90
2012,09,18,01,15,15.90
2012,09,18,01,16,15.90
2012,09,18,01,17,15.90
2012,09,18,01,18,15.90
2012,09,18,01,19,15.90
2012,09,18,01,20,15.90
2012,09,18,01,21,15.90
2012,09,18,01,22,15.90
2012,09,18,01,23,15.90
2012,09,18,01,24,15.80
2012,09,18,01,25,15.90
2012,09,18,01,26,16.00
2012,09,18,01,27,16.00
2012,09,18,01,28,16.00
2012,09,18,01,29,15.90
2012,09,18,01,30,15.90
2012,09,18,01,31,15.90
2012,09,18,01,32,15.90
2012,09,18,01,33,15.90
2012,09,18,01,34,15.90
2012,09,18,01,35,16.00
2012,09,18,01,36,16.00
2012,09,18,01,37,15.90
2012,09,18,01,38,15.90
2012,09,18,01,39,15.90
2012,09,18,01,40,15.90
2012,09,18,01,41,15.90
2012,09,18,01,42,15.80
2012,09,18,01,43,15.80
2012,09,18,01,44,15.80
2012,09,18,01,45,15.70
2012,09,18,01,46,15.70
2012,09,18,01,47,15.70
2012,09,18,01,48,15.70
2012,09,18,01,49,15.70
2012,09,18,01,50,15.60
2012,09,18,01,51,15.60
2012,09,18,01,52,15.60
2012,09,18,01,53,15.50
2012,09,18,01,54,15.50
2012,09,18,01,55,15.40
2012,09,18,01,56,15.40
2012,09,18,01,57,15.40
2012,09,18,01,58,15.40
2012,09,18,01,59,15.40
2012,09,18,02,00,15.40
2012,09,18,02,01,15.40
2012,09,18,02,02,15.40
2012,09,18,02,03,15.50
2012,09,18,02,04,15.60
2012,09,18,02,05,15.60
2012,09,18,02,06,15.60
2012,09,18,02,07,15.70
2012,09,18,02,08,15.60
2012,09,18,02,09,15.50
2012,09,18,02,10,15.50
2012,09,18,02,11,15.40
2012,09,18,02,12,15.40
2012,09,18,02,13,15.40
2012,09,18,02,14,15.40
2012,09,18,02,15,15.30
2012,09,18,02,16,15.30
2012,09,18,02,17,15.30
2012,09,18,02,18,15.30
2012,09,18,02,19,15.30
2012,09,18,02,20,15.30
2012,09,18,02,21,15.30
2012,09,18,02,22,15.30
2012,09,18,02,23,15.30
2012,09,18,02,24,15.40
2012,09,18,02,25,15.40
2012,09,18,02,26,15.60
2012,09,18,02,27,15.70
2012,09,18,02,28,15.80
2012,09,18,02,29,15.80
2012,09,18,02,30,15.80
2012,09,18,02,31,15.80
2012,09,18,02,32,15.80
2012,09,18,02,33,15.70
2012,09,18,02,34,15.70
2012,09,18,02,35,15.60
2012,09,18,02,36,15.50
2012,09,18,02,37,15.50
2012,09,18,02,38,15.40
2012,09,18,02,39,15.40
2012,09,18,02,40,15.30
2012,09,18,02,41,15.30
2012,09,18,02,42,15.30
2012,09,18,02,43,15.20
2012,09,18,02,44,15.10
2012,09,18,02,45,15.00
2012,09,18,02,46,15.00
2012,09,18,02,47,15.00
2012,09,18,02,48,15.00
2012,09,18,02,49,15.00
2012,09,18,02,50,15.00
2012,09,18,02,51,15.00
2012,09,18,02,52,15.00
2012,09,18,02,53,15.00
2012,09,18,02,54,15.00
2012,09,18,02,55,15.00
2012,09,18,02,56,15.00
2012,09,18,02,57,15.00
2012,09,18,02,58,15.00
2012,09,18,02,59,15.00
2012,09,18,03,00,15.10
2012,09,18,03,01,15.10
2012,09,18,03,02,15.00
2012,09,18,03,03,15.00
2012,09,18,03,04,15.00
2012,09,18,03,05,15.00
2012,09,18,03,06,15.00
2012,09,18,03,07,15.00
2012,09,18,03,08,15.00
2012,09,18,03,09,15.00
2012,09,18,03,10,15.00
2012,09,18,03,11,15.00
2012,09,18,03,12,15.00
2012,09,18,03,13,15.00
2012,09,18,03,14,15.00
2012,09,18,03,15,15.10
2012,09,18,03,16,15.20
2012,09,18,03,17,15.30
2012,09,18,03,18,15.30
2012,09,18,03,19,15.30
2012,09,18,03,20,15.40
2012,09,18,03,21,15.40
2012,09,18,03,22,15.40
2012,09,18,03,23,15.40
2012,09,18,03,24,15.40
2012,09,18,03,25,15.40
2012,09,18,03,26,15.40
2012,09,18,03,27,15.40
2012,09,18,03,28,15.40
2012,09,18,03,29,15.30
2012,09,18,03,30,15.20
2012,09,18,03,31,15.20
2012,09,18,03,32,15.10
2012,09,18,03,33,15.00
2012,09,18,03,34,15.00
2012,09,18,03,35,15.00
2012,09,18,03,36,15.00
2012,09,18,03,37,15.00
2012,09,18,03,38,15.00
2012,09,18,03,39,15.00
2012,09,18,03,40,14.80
2012,09,18,03,41,14.70
2012,09,18,03,42,14.50
2012,09,18,03,43,14.40
2012,09,18,03,44,14.30
2012,09,18,03,45,14.20
2012,09,18,03,46,14.20
2012,09,18,03,47,14.20
2012,09,18,03,48,14.20
2012,09,18,03,49,14.20
2012,09,18,03,50,14.20
2012,09,18,03,51,14.10
2012,09,18,03,52,14.10
2012,09,18,03,53,14.10
2012,09,18,03,54,14.10
2012,09,18,03,55,14.10
2012,09,18,03,56,14.10
2012,09,18,03,57,14.10
2012,09,18,03,58,14.10
2012,09,18,03,59,14.20
2012,09,18,04,00,14.20
2012,09,18,04,01,14.20
2012,09,18,04,02,14.20
2012,09,18,04,03,14.20
2012,09,18,04,04,14.20
2012,09,18,04,05,14.10
2012,09,18,04,06,14.10
2012,09,18,04,07,14.10
2012,09,18,04,08,14.10
2012,09,18,04,09,14.10
2012,09,18,04,10,14.10
2012,09,18,04,11,14.20
2012,09,18,04,12,14.20
2012,09,18,04,13,14.20
2012,09,18,04,14,14.20
2012,09,18,04,15,14.20
2012,09,18,04,16,14.20
2012,09,18,04,17,14.30
2012,09,18,04,18,14.40
2012,09,18,04,19,14.50
2012,09,18,04,20,14.60
2012,09,18,04,21,14.60
2012,09,18,04,22,14.60
2012,09,18,04,23,14.60
2012,09,18,04,24,14.70
2012,09,18,04,25,14.70
2012,09,18,04,26,14.80
2012,09,18,04,27,14.90
2012,09,18,04,28,15.00
2012,09,18,04,29,15.00
2012,09,18,04,30,15.00
2012,09,18,04,31,15.00
2012,09,18,04,32,15.00
2012,09,18,04,33,15.00
2012,09,18,04,34,15.00
2012,09,18,04,35,14.90
2012,09,18,04,36,14.80
2012,09,18,04,37,14.70
2012,09,18,04,38,14.70
2012,09,18,04,39,14.60
2012,09,18,04,40,14.50
2012,09,18,04,41,14.50
2012,09,18,04,42,14.60
2012,09,18,04,43,14.60
2012,09,18,04,44,14.60
2012,09,18,04,45,14.60
2012,09,18,04,46,14.50
2012,09,18,04,47,14.50
2012,09,18,04,48,14.40
2012,09,18,04,49,14.40
2012,09,18,04,50,14.40
2012,09,18,04,51,14.30
2012,09,18,04,52,14.30
2012,09,18,04,53,14.20
2012,09,18,04,54,14.10
2012,09,18,04,55,13.90
2012,09,18,04,56,13.80
2012,09,18,04,57,13.80
2012,09,18,04,58,13.90
2012,09,18,04,59,14.00
2012,09,18,05,00,14.10
2012,09,18,05,01,14.10
2012,09,18,05,02,14.00
2012,09,18,05,03,14.00
2012,09,18,05,04,13.90
2012,09,18,05,05,13.90
2012,09,18,05,06,13.80
2012,09,18,05,07,13.80
2012,09,18,05,08,13.70
2012,09,18,05,09,13.60
2012,09,18,05,10,13.50
2012,09,18,05,11,13.50
2012,09,18,05,12,13.40
2012,09,18,05,13,13.30
2012,09,18,05,14,13.20
2012,09,18,05,15,13.10
2012,09,18,05,16,13.10
2012,09,18,05,17,13.00
2012,09,18,05,18,12.90
2012,09,18,05,19,12.80
2012,09,18,05,20,12.80
2012,09,18,05,21,12.90
2012,09,18,05,22,13.00
2012,09,18,05,23,13.10
2012,09,18,05,24,13.20
2012,09,18,05,25,13.20
2012,09,18,05,26,13.30
2012,09,18,05,27,13.30
2012,09,18,05,28,13.30
2012,09,18,05,29,13.30
2012,09,18,05,30,13.30
2012,09,18,05,31,13.20
2012,09,18,05,32,13.10
2012,09,18,05,33,13.00
2012,09,18,05,34,12.90
2012,09,18,05,35,12.80
2012,09,18,05,36,12.80
2012,09,18,05,37,12.70
2012,09,18,05,38,12.70
2012,09,18,05,39,12.70
2012,09,18,05,40,12.80
2012,09,18,05,41,12.80
2012,09,18,05,42,12.90
2012,09,18,05,43,12.90
2012,09,18,05,44,13.00
2012,09,18,05,45,13.10
2012,09,18,05,46,13.10
2012,09,18,05,47,13.10
2012,09,18,05,48,13.10
2012,09,18,05,49,13.10
2012,09,18,05,50,13.20
2012,09,18,05,51,13.20
2012,09,18,05,52,13.20
2012,09,18,05,53,13.10
2012,09,18,05,54,13.10
2012,09,18,05,55,13.00
2012,09,18,05,56,13.00
2012,09,18,05,57,12.90
2012,09,18,05,58,12.90
2012,09,18,05,59,12.80
2012,09,18,06,00,12.80
2012,09,18,06,01,12.80
2012,09,18,06,02,12.70
2012,09,18,06,03,12.70
2012,09,18,06,04,12.70
2012,09,18,06,05,12.70
2012,09,18,06,06,12.60
2012,09,18,06,07,12.60
2012,09,18,06,08,12.70
2012,09,18,06,09,12.70
2012,09,18,06,10,12.80
2012,09,18,06,11,12.80
2012,09,18,06,12,12.90
2012,09,18,06,13,12.90
2012,09,18,06,14,12.90
2012,09,18,06,15,13.00
2012,09,18,06,16,13.00
2012,09,18,06,17,13.00
2012,09,18,06,18,12.90
2012,09,18,06,19,12.90
2012,09,18,06,20,12.90
2012,09,18,06,21,12.90
2012,09,18,06,22,12.90
2012,09,18,06,23,12.90
2012,09,18,06,24,13.00
2012,09,18,06,25,13.00
2012,09,18,06,26,13.00
2012,09,18,06,27,12.90
2012,09,18,06,28,12.90
2012,09,18,06,29,12.80
2012,09,18,06,30,12.80
2012,09,18,06,31,12.70
2012,09,18,06,32,12.60
2012,09,18,06,33,12.60
2012,09,18,06,34,12.50
2012,09,18,06,35,12.50
2012,09,18,06,36,12.40
2012,09,18,06,37,12.40
2012,09,18,06,38,12.40
2012,09,18,06,39,12.30
2012,09,18,06,40,12.30
2012,09,18,06,41,12.30
2012,09,18,06,42,12.30
2012,09,18,06,43,12.30
2012,09,18,06,44,12.30
2012,09,18,06,45,12.40
2012,09,18,06,46,12.50
2012,09,18,06,47,12.60
2012,09,18,06,48,12.70
2012,09,18,06,49,12.80
2012,09,18,06,50,12.90
2012,09,18,06,51,12.90
2012,09,18,06,52,13.00
2012,09,18,06,53,13.00
2012,09,18,06,54,13.10
2012,09,18,06,55,13.20
2012,09,18,06,56,13.30
2012,09,18,06,57,13.40
2012,09,18,06,58,13.40
2012,09,18,06,59,13.40
2012,09,18,07,00,13.40
2012,09,18,07,01,13.40
2012,09,18,07,02,13.40
2012,09,18,07,03,13.40
2012,09,18,07,04,13.40
2012,09,18,07,05,13.20
2012,09,18,07,06,13.10
2012,09,18,07,07,13.10
2012,09,18,07,08,13.10
2012,09,18,07,09,13.10
2012,09,18,07,10,13.10
2012,09,18,07,11,13.00
2012,09,18,07,12,13.00
2012,09,18,07,13,13.00
2012,09,18,07,14,13.00
2012,09,18,07,15,13.00
2012,09,18,07,16,13.00
2012,09,18,07,17,13.00
2012,09,18,07,18,13.00
2012,09,18,07,19,13.00
2012,09,18,07,20,12.90
2012,09,18,07,21,12.80
2012,09,18,07,22,12.70
2012,09,18,07,23,12.60
2012,09,18,07,24,12.50
2012,09,18,07,25,12.40
2012,09,18,07,26,12.40
2012,09,18,07,27,12.30
2012,09,18,07,28,12.30
2012,09,18,07,29,12.30
2012,09,18,07,30,12.40
2012,09,18,07,31,12.60
2012,09,18,07,32,12.90
2012,09,18,07,33,13.30
2012,09,18,07,34,13.50
2012,09,18,07,35,13.80
2012,09,18,07,36,14.10
2012,09,18,07,37,14.30
2012,09,18,07,38,14.60
2012,09,18,07,39,14.80
2012,09,18,07,40,15.00
2012,09,18,07,41,15.00
2012,09,18,07,42,15.20
2012,09,18,07,43,15.40
2012,09,18,07,44,15.50
2012,09,18,07,45,15.60
2012,09,18,07,46,15.70
2012,09,18,07,47,15.70
2012,09,18,07,48,15.80
2012,09,18,07,49,15.90
2012,09,18,07,50,16.00
2012,09,18,07,51,16.00
2012,09,18,07,52,16.10
2012,09,18,07,53,16.10
2012,09,18,07,54,16.20
2012,09,18,07,55,16.10
2012,09,18,07,56,16.10
2012,09,18,07,57,16.10
2012,09,18,07,58,16.10
2012,09,18,07,59,16.10
2012,09,18,08,00,16.00
2012,09,18,08,01,16.00
2012,09,18,08,02,16.00
2012,09,18,08,03,16.10
2012,09,18,08,04,16.10
2012,09,18,08,05,16.10
2012,09,18,08,06,16.20
2012,09,18,08,07,16.20
2012,09,18,08,08,16.20
2012,09,18,08,09,16.20
2012,09,18,08,10,16.20
2012,09,18,08,11,16.20
2012,09,18,08,12,16.20
2012,09,18,08,13,16.20
2012,09,18,08,14,16.30
2012,09,18,08,15,16.30
2012,09,18,08,16,16.40
2012,09,18,08,17,16.40
2012,09,18,08,18,16.50
2012,09,18,08,19,16.60
2012,09,18,08,20,16.70
2012,09,18,08,21,16.70
2012,09,18,08,22,16.80
2012,09,18,08,23,16.80
2012,09,18,08,24,16.90
2012,09,18,08,25,17.00
2012,09,18,08,26,17.10
2012,09,18,08,27,17.20
2012,09,18,08,28,17.20
2012,09,18,08,29,17.20
2012,09,18,08,30,17.20
2012,09,18,08,31,17.10
2012,09,18,08,32,17.00
2012,09,18,08,33,16.90
2012,09,18,08,34,16.80
2012,09,18,08,35,16.70
2012,09,18,08,36,16.70
2012,09,18,08,37,16.70
2012,09,18,08,38,16.70
2012,09,18,08,39,16.70
2012,09,18,08,40,16.70
2012,09,18,08,41,16.80
2012,09,18,08,42,16.90
2012,09,18,08,43,17.00
2012,09,18,08,44,17.10
2012,09,18,08,45,17.20
2012,09,18,08,46,17.20
2012,09,18,08,47,17.20
2012,09,18,08,48,17.20
2012,09,18,08,49,17.20
2012,09,18,08,50,17.20
2012,09,18,08,51,17.20
2012,09,18,08,52,17.20
2012,09,18,08,53,17.20
2012,09,18,08,54,17.20
2012,09,18,08,55,17.30
2012,09,18,08,56,17.40
2012,09,18,08,57,17.50
2012,09,18,08,58,17.60
2012,09,18,08,59,17.60
2012,09,18,09,00,17.70
2012,09,18,09,01,17.80
2012,09,18,09,02,17.80
2012,09,18,09,03,17.90
2012,09,18,09,04,17.90
2012,09,18,09,05,17.80
2012,09,18,09,06,17.80
2012,09,18,09,07,17.70
2012,09,18,09,08,17.70
2012,09,18,09,09,17.70
2012,09,18,09,10,17.60
2012,09,18,09,11,17.60
2012,09,18,09,12,17.50
2012,09,18,09,13,17.50
2012,09,18,09,14,17.50
2012,09,18,09,15,17.50
2012,09,18,09,16,17.60
2012,09,18,09,17,17.70
2012,09,18,09,18,17.70
2012,09,18,09,19,17.80
2012,09,18,09,20,17.80
2012,09,18,09,21,17.90
2012,09,18,09,22,18.00
2012,09,18,09,23,18.00
2012,09,18,09,24,18.10
2012,09,18,09,25,18.20
2012,09,18,09,26,18.30
2012,09,18,09,27,18.30
2012,09,18,09,28,18.50
2012,09,18,09,29,18.50
2012,09,18,09,30,18.70
2012,09,18,09,31,18.80
2012,09,18,09,32,18.90
2012,09,18,09,33,19.00
2012,09,18,09,34,19.10
2012,09,18,09,35,19.20
2012,09,18,09,36,19.20
2012,09,18,09,37,19.20
2012,09,18,09,38,19.20
2012,09,18,09,39,19.20
2012,09,18,09,40,19.10
2012,09,18,09,41,18.90
2012,09,18,09,42,18.70
2012,09,18,09,43,18.50
2012,09,18,09,44,18.30
2012,09,18,09,45,18.20
2012,09,18,09,46,18.10
2012,09,18,09,47,18.00
2012,09,18,09,48,17.90
2012,09,18,09,49,17.80
2012,09,18,09,50,17.70
2012,09,18,09,51,17.70
2012,09,18,09,52,17.60
2012,09,18,09,53,17.60
2012,09,18,09,54,17.60
2012,09,18,09,55,17.60
2012,09,18,09,56,17.60
2012,09,18,09,57,17.70
2012,09,18,09,58,17.80
2012,09,18,09,59,17.90
2012,09,18,10,00,18.10
2012,09,18,10,01,18.30
2012,09,18,10,02,18.40
2012,09,18,10,03,18.60
2012,09,18,10,04,18.60
2012,09,18,10,05,18.70
2012,09,18,10,06,18.80
2012,09,18,10,07,18.90
2012,09,18,10,08,19.00
2012,09,18,10,09,19.10
2012,09,18,10,10,19.30
2012,09,18,10,11,19.40
2012,09,18,10,12,19.50
2012,09,18,10,13,19.50
2012,09,18,10,14,19.60
2012,09,18,10,15,19.60
2012,09,18,10,16,19.70
2012,09,18,10,17,19.80
2012,09,18,10,18,19.80
2012,09,18,10,19,19.80
2012,09,18,10,20,19.90
2012,09,18,10,21,19.90
2012,09,18,10,22,20.00
2012,09,18,10,23,20.00
2012,09,18,10,24,20.00
2012,09,18,10,25,19.90
2012,09,18,10,26,19.90
2012,09,18,10,27,19.80
2012,09,18,10,28,19.80
2012,09,18,10,29,19.70
2012,09,18,10,30,19.70
2012,09,18,10,31,19.70
2012,09,18,10,32,19.80
2012,09,18,10,33,19.90
2012,09,18,10,34,20.10
2012,09,18,10,35,20.20
2012,09,18,10,36,20.40
2012,09,18,10,37,20.50
2012,09,18,10,38,20.50
2012,09,18,10,39,20.50
2012,09,18,10,40,20.50
2012,09,18,10,41,20.60
2012,09,18,10,42,20.50
2012,09,18,10,43,20.50
2012,09,18,10,44,20.60
2012,09,18,10,45,20.70
2012,09,18,10,46,20.70
2012,09,18,10,47,20.80
2012,09,18,10,48,20.80
2012,09,18,10,49,20.90
2012,09,18,10,50,20.90
2012,09,18,10,51,21.00
2012,09,18,10,52,21.10
2012,09,18,10,53,21.20
2012,09,18,10,54,21.30
2012,09,18,10,55,21.40
2012,09,18,10,56,21.40
2012,09,18,10,57,21.50
2012,09,18,10,58,21.60
2012,09,18,10,59,21.70
2012,09,18,11,00,21.70
2012,09,18,11,01,21.80
2012,09,18,11,02,21.90
2012,09,18,11,03,22.00
2012,09,18,11,04,22.10
2012,09,18,11,05,22.10
2012,09,18,11,06,22.10
2012,09,18,11,07,22.10
2012,09,18,11,08,22.00
2012,09,18,11,09,21.80
2012,09,18,11,10,21.60
2012,09,18,11,11,21.40
2012,09,18,11,12,21.10
2012,09,18,11,13,20.80
2012,09,18,11,14,20.70
2012,09,18,11,15,20.70
2012,09,18,11,16,20.60
2012,09,18,11,17,20.60
2012,09,18,11,18,20.60
2012,09,18,11,19,20.60
2012,09,18,11,20,20.70
2012,09,18,11,21,20.70
2012,09,18,11,22,20.80
2012,09,18,11,23,20.80
2012,09,18,11,24,20.80
2012,09,18,11,25,20.80
2012,09,18,11,26,20.80
2012,09,18,11,27,20.80
2012,09,18,11,28,20.90
2012,09,18,11,29,20.90
2012,09,18,11,30,20.90
2012,09,18,11,31,21.00
2012,09,18,11,32,21.10
2012,09,18,11,33,21.10
2012,09,18,11,34,21.20
2012,09,18,11,35,21.20
2012,09,18,11,36,21.30
2012,09,18,11,37,21.20
2012,09,18,11,38,21.20
2012,09,18,11,39,21.30
2012,09,18,11,40,21.40
2012,09,18,11,41,21.50
2012,09,18,11,42,21.60
2012,09,18,11,43,21.70
2012,09,18,11,44,21.80
2012,09,18,11,45,21.80
2012,09,18,11,46,21.80
2012,09,18,11,47,21.90
2012,09,18,11,48,21.90
2012,09,18,11,49,22.00
2012,09,18,11,50,22.10
2012,09,18,11,51,22.10
2012,09,18,11,52,22.10
2012,09,18,11,53,22.10
2012,09,18,11,54,22.10
2012,09,18,11,55,22.00
2012,09,18,11,56,21.90
2012,09,18,11,57,21.90
2012,09,18,11,58,21.90
2012,09,18,11,59,22.00
2012,09,18,12,00,22.20
2012,09,18,12,01,22.30
2012,09,18,12,02,22.20
2012,09,18,12,03,22.20
2012,09,18,12,04,22.20
2012,09,18,12,05,22.20
2012,09,18,12,06,22.20
2012,09,18,12,07,22.30
2012,09,18,12,08,22.40
2012,09,18,12,09,22.60
2012,09,18,12,10,22.70
2012,09,18,12,11,22.70
2012,09,18,12,12,22.80
2012,09,18,12,13,22.70
2012,09,18,12,14,22.60
2012,09,18,12,15,22.50
2012,09,18,12,16,22.40
2012,09,18,12,17,22.30
2012,09,18,12,18,22.30
2012,09,18,12,19,22.30
2012,09,18,12,20,22.30
2012,09,18,12,21,22.40
2012,09,18,12,22,22.30
2012,09,18,12,23,22.20
2012,09,18,12,24,22.20
2012,09,18,12,25,22.10
2012,09,18,12,26,22.00
2012,09,18,12,27,21.90
2012,09,18,12,28,21.80
2012,09,18,12,29,21.70
2012,09,18,12,30,21.60
2012,09,18,12,31,21.60
2012,09,18,12,32,21.60
2012,09,18,12,33,21.50
2012,09,18,12,34,21.50
2012,09,18,12,35,21.40
2012,09,18,12,36,21.30
2012,09,18,12,37,21.40
2012,09,18,12,38,21.40
2012,09,18,12,39,21.60
2012,09,18,12,40,21.80
2012,09,18,12,41,21.80
2012,09,18,12,42,21.80
2012,09,18,12,43,21.80
2012,09,18,12,44,21.70
2012,09,18,12,45,21.70
2012,09,18,12,46,21.70
2012,09,18,12,47,21.60
2012,09,18,12,48,21.60
2012,09,18,12,49,21.70
2012,09,18,12,50,21.70
2012,09,18,12,51,21.70
2012,09,18,12,52,21.70
2012,09,18,12,53,21.80
2012,09,18,12,54,21.90
2012,09,18,12,55,22.00
2012,09,18,12,56,22.00
2012,09,18,12,57,22.10
2012,09,18,12,58,22.20
2012,09,18,12,59,22.20
2012,09,18,13,00,22.30
2012,09,18,13,01,22.50
2012,09,18,13,02,22.60
2012,09,18,13,03,22.60
2012,09,18,13,04,22.60
2012,09,18,13,05,22.50
2012,09,18,13,06,22.60
2012,09,18,13,07,22.50
2012,09,18,13,08,22.40
2012,09,18,13,09,22.30
2012,09,18,13,10,22.30
2012,09,18,13,11,22.20
2012,09,18,13,12,22.20
2012,09,18,13,13,22.20
2012,09,18,13,14,22.10
2012,09,18,13,15,22.10
2012,09,18,13,16,22.10
2012,09,18,13,17,22.10
2012,09,18,13,18,22.10
2012,09,18,13,19,22.20
2012,09,18,13,20,22.30
2012,09,18,13,21,22.30
2012,09,18,13,22,22.40
2012,09,18,13,23,22.50
2012,09,18,13,24,22.60
2012,09,18,13,25,22.70
2012,09,18,13,26,22.80
2012,09,18,13,27,22.80
2012,09,18,13,28,22.80
2012,09,18,13,29,22.90
2012,09,18,13,30,22.80
2012,09,18,13,31,22.90
2012,09,18,13,32,23.00
2012,09,18,13,33,23.20
2012,09,18,13,34,23.40
2012,09,18,13,35,23.40
2012,09,18,13,36,23.40
2012,09,18,13,37,23.40
2012,09,18,13,38,23.40
2012,09,18,13,39,23.30
2012,09,18,13,40,23.30
2012,09,18,13,41,23.40
2012,09,18,13,42,23.40
2012,09,18,13,43,23.40
2012,09,18,13,44,23.40
2012,09,18,13,45,23.40
2012,09,18,13,46,23.40
2012,09,18,13,47,23.30
2012,09,18,13,48,23.30
2012,09,18,13,49,23.20
2012,09,18,13,50,23.20
2012,09,18,13,51,23.20
2012,09,18,13,52,23.10
2012,09,18,13,53,23.00
2012,09,18,13,54,23.00
2012,09,18,13,55,22.90
2012,09,18,13,56,22.90
2012,09,18,13,57,22.90
2012,09,18,13,58,22.90
2012,09,18,13,59,22.90
2012,09,18,14,00,22.90
2012,09,18,14,01,22.90
2012,09,18,14,02,23.00
2012,09,18,14,03,23.10
2012,09,18,14,04,23.20
2012,09,18,14,05,23.20
2012,09,18,14,06,23.20
2012,09,18,14,07,23.20
2012,09,18,14,08,23.20
2012,09,18,14,09,23.20
2012,09,18,14,10,23.20
2012,09,18,14,11,23.20
2012,09,18,14,12,23.20
2012,09,18,14,13,23.20
2012,09,18,14,14,23.20
2012,09,18,14,15,23.10
2012,09,18,14,16,23.00
2012,09,18,14,17,22.90
2012,09,18,14,18,22.90
2012,09,18,14,19,22.90
2012,09,18,14,20,23.00
2012,09,18,14,21,23.10
2012,09,18,14,22,23.10
2012,09,18,14,23,23.20
2012,09,18,14,24,23.20
2012,09,18,14,25,23.20
2012,09,18,14,26,23.10
2012,09,18,14,27,23.10
2012,09,18,14,28,23.20
2012,09,18,14,29,23.20
2012,09,18,14,30,23.20
2012,09,18,14,31,23.20
2012,09,18,14,32,23.20
2012,09,18,14,33,23.30
2012,09,18,14,34,23.40
2012,09,18,14,35,23.40
2012,09,18,14,36,23.50
2012,09,18,14,37,23.40
2012,09,18,14,38,23.50
2012,09,18,14,39,23.60
2012,09,18,14,40,23.60
2012,09,18,14,41,23.50
2012,09,18,14,42,23.50
2012,09,18,14,43,23.50
2012,09,18,14,44,23.40
2012,09,18,14,45,23.50
2012,09,18,14,46,23.50
2012,09,18,14,47,23.50
2012,09,18,14,48,23.50
2012,09,18,14,49,23.40
2012,09,18,14,50,23.50
2012,09,18,14,51,23.50
2012,09,18,14,52,23.50
2012,09,18,14,53,23.50
2012,09,18,14,54,23.40
2012,09,18,14,55,23.40
2012,09,18,14,56,23.40
2012,09,18,14,57,23.40
2012,09,18,14,58,23.30
2012,09,18,14,59,23.40
2012,09,18,15,00,23.40
2012,09,18,15,01,23.40
2012,09,18,15,02,23.40
2012,09,18,15,03,23.40
2012,09,18,15,04,23.40
2012,09,18,15,05,23.50
2012,09,18,15,06,23.50
2012,09,18,15,07,23.40
2012,09,18,15,08,23.40
2012,09,18,15,09,23.40
2012,09,18,15,10,23.50
2012,09,18,15,11,23.60
2012,09,18,15,12,23.70
2012,09,18,15,13,23.70
2012,09,18,15,14,23.70
2012,09,18,15,15,23.70
2012,09,18,15,16,23.60
2012,09,18,15,17,23.60
2012,09,18,15,18,23.60
2012,09,18,15,19,23.70
2012,09,18,15,20,23.70
2012,09,18,15,21,23.70
2012,09,18,15,22,23.60
2012,09,18,15,23,23.60
2012,09,18,15,24,23.50
2012,09,18,15,25,23.40
2012,09,18,15,26,23.40
2012,09,18,15,27,23.40
2012,09,18,15,28,23.40
2012,09,18,15,29,23.50
2012,09,18,15,30,23.60
2012,09,18,15,31,23.60
2012,09,18,15,32,23.70
2012,09,18,15,33,23.80
2012,09,18,15,34,23.90
2012,09,18,15,35,23.90
2012,09,18,15,36,23.90
2012,09,18,15,37,23.90
2012,09,18,15,38,23.90
2012,09,18,15,39,23.80
2012,09,18,15,40,23.70
2012,09,18,15,41,23.70
2012,09,18,15,42,23.70
2012,09,18,15,43,23.70
2012,09,18,15,44,23.70
2012,09,18,15,45,23.70
2012,09,18,15,46,23.70
2012,09,18,15,47,23.70
2012,09,18,15,48,23.70
2012,09,18,15,49,23.70
2012,09,18,15,50,23.70
2012,09,18,15,51,23.70
2012,09,18,15,52,23.70
2012,09,18,15,53,23.70
2012,09,18,15,54,23.70
2012,09,18,15,55,23.80
2012,09,18,15,56,23.80
2012,09,18,15,57,23.90
2012,09,18,15,58,23.90
2012,09,18,15,59,23.90
2012,09,18,16,00,23.90
2012,09,18,16,01,23.80
2012,09,18,16,02,23.80
2012,09,18,16,03,23.70
2012,09,18,16,04,23.70
2012,09,18,16,05,23.70
2012,09,18,16,06,23.70
2012,09,18,16,07,23.70
2012,09,18,16,08,23.70
2012,09,18,16,09,23.70
2012,09,18,16,10,23.70
2012,09,18,16,11,23.80
2012,09,18,16,12,23.80
2012,09,18,16,13,23.90
2012,09,18,16,14,24.00
2012,09,18,16,15,24.00
2012,09,18,16,16,24.00
2012,09,18,16,17,23.90
2012,09,18,16,18,23.90
2012,09,18,16,19,23.90
2012,09,18,16,20,23.90
2012,09,18,16,21,23.80
2012,09,18,16,22,23.80
2012,09,18,16,23,23.80
2012,09,18,16,24,23.90
2012,09,18,16,25,23.90
2012,09,18,16,26,23.80
2012,09,18,16,27,23.80
2012,09,18,16,28,23.80
2012,09,18,16,29,23.90
2012,09,18,16,30,23.90
2012,09,18,16,31,23.90
2012,09,18,16,32,23.90
2012,09,18,16,33,23.90
2012,09,18,16,34,23.90
2012,09,18,16,35,23.90
2012,09,18,16,36,23.90
2012,09,18,16,37,23.90
2012,09,18,16,38,23.90
2012,09,18,16,39,23.90
2012,09,18,16,40,24.00
2012,09,18,16,41,24.00
2012,09,18,16,42,24.10
2012,09,18,16,43,24.20
2012,09,18,16,44,24.20
2012,09,18,16,45,24.20
2012,09,18,16,46,24.20
2012,09,18,16,47,24.30
2012,09,18,16,48,24.30
2012,09,18,16,49,24.40
2012,09,18,16,50,24.40
2012,09,18,16,51,24.40
2012,09,18,16,52,24.50
2012,09,18,16,53,24.50
2012,09,18,16,54,24.50
2012,09,18,16,55,24.50
2012,09,18,16,56,24.50
2012,09,18,16,57,24.60
2012,09,18,16,58,24.60
2012,09,18,16,59,24.60
2012,09,18,17,00,24.70
2012,09,18,17,01,24.60
2012,09,18,17,02,24.60
2012,09,18,17,03,24.60
2012,09,18,17,04,24.60
2012,09,18,17,05,24.60
2012,09,18,17,06,24.50
2012,09,18,17,07,24.50
2012,09,18,17,08,24.40
2012,09,18,17,09,24.30
2012,09,18,17,10,24.30
2012,09,18,17,11,24.20
2012,09,18,17,12,24.20
2012,09,18,17,13,24.20
2012,09,18,17,14,24.20
2012,09,18,17,15,24.20
2012,09,18,17,16,24.20
2012,09,18,17,17,24.20
2012,09,18,17,18,24.20
2012,09,18,17,19,24.20